sat.trackr.live / text

‹ back to catalog

STARLINK-6225

NORAD 57092 · 2023-088AW

PAYLOAD ACTIVE UNKNOWN

§ Identity

Operator
Country
US
Launch date
2023-06-22
Launch site
AFWTR
Launch vehicle
Mass (kg)
RCS (m²)

Purposes: comms

External: N2YO · Heavens-Above · Gunter

§ Orbital elements

Epoch: 2026-09-19T22:54:08.597088Z

Period
94.27 min
Inclination
43.0061°
Eccentricity
0.0001882
Mean motion
15.27570550 rev/d
Perigee alt
481.8 km
Apogee alt
484.4 km
Semi-major
6,861.2 km
B*
1.1954e-5
RAAN
78.7563°
Arg perigee
264.9606°
Mean anomaly
95.1030°
Rev number
18,021

§ Raw data

STARLINK-62251 57092U 23088AW  26262.95426617  .00000066  00000+0  11954-4 0  99972 57092  43.0061  78.7563 0001882 264.9606  95.1030 15.27570550180214

JSON: /api/v1/satellites/57092 · /tle

For live sub-satellite position, see the globe view (requires WebGL).

§ Visibility from observer

Set your observer location to see the next 7 days of passes ≥ 10°. The values pass through the URL so the page stays shareable.

No JS? Fill the form by hand. The geolocation button needs JavaScript.